Regional Weather Roundup
Issued by NWS

Current Version | Previous Version | Text Only | Print | Product List | Glossary On
Versions: 1 2 3 4 5 6 7 8 9 10 11 12 13 14 15 16 17 18 19 20 21 22 23 24 25 26 27 28 29 30 31 32 33 34 35 36 37 38 39 40 41 42 43 44 45 46 47 48 49 50
000
ASUS42 KTBW 310017
RWRFL
FLORIDA REGIONAL WEATHER ROUNDUP
NATIONAL WEATHER SERVICE TAMPA BAY RUSKIN FL
800 PM EDT THU JUL 30 2015

NOTE: "FAIR" INDICATES FEW OR NO CLOUDS BELOW 12,000 FEET WITH NO
SIGNIFICANT WEATHER AND/OR OBSTRUCTIONS TO VISIBILITY.


FLZ001>010-012>015-112-114-115-310100-
PANHANDLE FLORIDA

CITY           SKY/WX    TMP DP  RH WIND       PRES   REMARKS
PENSACOLA      TSTM      78  75  90 NE6       29.92R
PENSACOLA NAS  TSTM      77  73  87 VRB5G24   29.90R VSB 1/2
MILTON NAS     CLOUDY    82  73  74 CALM      29.93  THUNDER
CRESTVIEW      MOCLDY    80  77  90 S12       29.91R
DUKE FIELD     PTCLDY    79  76  91 S9        29.88F THUNDER
VALPARAISO     PTCLDY    81  79  93 SW2       29.88F THUNDER
MARY ESTHER    TSTM      79  77  94 SW8       29.90  FOG
TRI COUNTY     FAIR      80  75  84 VRB3      29.90S THUNDER
PANAMA CITY    FAIR      79  76  90 NW5       29.87F
TYNDALL AFB    PTCLDY    80  78  92 E3        29.88S
APALACHICOLA   PTCLDY    84  76  76 SW3       29.89R

STATION/POSITION SKY/WX   TEMP    WIND        PRES    WAVE   SWELL
                          AIR SEA DIR/SP/G            HT/PER HT/PER
                          (F)     (DEG/KT/KT) (MB)    (FT/S) (FT/S)
30.1N   87.6W              84 86  250/ 12/ 12 1011.0F   1/ 2
29.2N   88.2W              87 92  260/ 10/ 12 1012.6F   1/ 3
28.8N   86.0W              83 86  240/ 10/ 12 1012.6    2/ 5   2/ 5
PANAMA CITY BEAC           80 85  240/  5/  6 1012.0F
CAPE SAN BLAS    NOT AVBL
TOWER C                    82     220/ 11/ 12 1012.8R
28.5N   84.5W              83 85  240/ 10/ 12 1013.0S   2/ 4   2/ 9

$$
FLZ011-016>038-118-127-128-134-139-239-310100-
NORTH FLORIDA

CITY           SKY/WX    TMP DP  RH WIND       PRES   REMARKS
MARIANNA       PTCLDY    83  76  79 CALM      29.89S
TALLAHASSEE    MOCLDY    81  78  91 CALM      29.90S
PERRY          MOCLDY    82  82 100 CALM      29.92S HX  95
CROSS CITY       N/A     82  77  84 S3        29.92S
LAKE CITY      FAIR      81  77  89 W6        29.93R
GAINESVILLE    PTCLDY    82  74  76 W10       29.94R
MAYPORT NAS    PTCLDY    85  74  69 SE10      29.91R
JACKSONVILLE   MOCLDY    87  74  64 S7        29.91R HX  95
JAX NAS        MOCLDY    93  73  52 W12       29.91R THUNDER HX 102
JAX CRAIG      CLEAR     85  72  65 SE8       29.91R
JAX CECIL      PTCLDY    84  75  74 SW8       29.92R
FERNANDINA BEA FAIR      88  73  62 SE6       29.91R HX  96
ST AUGUSTINE   CLOUDY    83  75  77 SW10      29.95R

STATION/POSITION SKY/WX   TEMP    WIND        PRES    WAVE   SWELL
                          AIR SEA DIR/SP/G            HT/PER HT/PER
                          (F)     (DEG/KT/KT) (MB)    (FT/S) (FT/S)
SHELL POINT                82     270/  6/  8   N/A
KEATON BEACH               83     260/  8/  9 1013.0F
CEDAR KEY                  83     280/  4/  5 1014.0R
FERNANDINA                 87 86  110/  5/  6 1011.9R
30.7N   81.3W                 85                N/A     2/ 5
MAYPORT                    86 84  130/  7/ 10 1012.9R
31.4N   80.9W              82 83  200/ 10/ 12 1012.7R   2/ 7   2/ 7
ST AUGUSTINE               80 84  240/ 11/ 14 1014.6R

$$
FLZ040-043>046-052-053-057-058-063-144-310100-
INTERIOR CENTRAL FLORIDA

CITY           SKY/WX    TMP DP  RH WIND       PRES   REMARKS
OCALA          MOCLDY    81  72  74 S6        29.95R
THE VILLAGES     N/A     75  75 100 CALM      29.86S
LEESBURG       CLOUDY    79  74  84 CALM      29.98R
SANFORD        CLOUDY    78  73  84 SW6       29.96R
ORLANDO EXEC   CLOUDY    79  76  90 S8        29.97R
ORLANDO INTL   MOCLDY    78  77  96 S6        29.97S
KISSIMMEE      MOCLDY    81  75  83 CALM      29.99R
WINTER HAVEN   CLOUDY    82  75  79 SW8       29.99R
LAKELAND       MOCLDY    79  73  83 W12       30.00R
BARTOW         FAIR      81  75  83 CALM      29.99R
OKEECHOBEE     CLOUDY    73  73 100 CALM      30.00S

$$
FLZ041-047-054-059-064-141-147-310100-
EAST CENTRAL FLORIDA

CITY           SKY/WX    TMP DP  RH WIND       PRES   REMARKS
DAYTONA BEACH  MOCLDY    80  73  79 S6        29.95S
DELAND           N/A     81  72  74 CALM      29.96R
NEW SMYRNA BEA LGT RAIN  75  73  94 SW12      29.95S
JFK SPACE CTR  DRIZZLE   75  71  89 S3        29.96S
TITUSVILLE     MOCLDY    75  73  94 S6        29.97R
CAPE CANAVERAL LGT RAIN  77  72  83 S6        29.95S
PATRICK AFB    CLOUDY    77  74  91 S9        29.96S
MELBOURNE      CLOUDY    76  74  93 S5        29.97F
VERO BEACH     CLOUDY    77  72  84 S3        29.99S
FT PIERCE      CLOUDY    75  72  90 S7        29.99R
STUART           N/A     73  72  94 E3        30.01F

STATION/POSITION SKY/WX   TEMP    WIND        PRES    WAVE   SWELL
                          AIR SEA DIR/SP/G            HT/PER HT/PER
                          (F)     (DEG/KT/KT) (MB)    (FT/S) (FT/S)
28.5N   80.2W              78 81  280/ 19/ 21 1014.7R
28.9N   78.5W              84 84  220/ 12/ 14 1014.5R
TRIDENT PIER               76 80  220/  7/  8 1015.2F
28.4N   80.5W                 80                N/A     2/ 3
27.5N   80.2W                 78                N/A     1/11

$$
FLZ050-056-061-142-242-148-248-149-249-151-251-155-255-
160-260-310100-
WEST CENTRAL FLORIDA

CITY           SKY/WX    TMP DP  RH WIND       PRES   REMARKS
CRYSTAL RIVER  FAIR      81  73  78 CALM      29.94F
INVERNESS      FAIR      82  77  83 CALM      29.96R
BROOKSVILLE    MOCLDY    82  74  76 S10       29.97R
ZEPHYRHILLS    MOCLDY    73  73 100 CALM      29.99R
CLEARWATER     LGT RAIN  76  72  87 SW14      29.98R
TAMPA INTL     CLOUDY    78  73  84 SW8       29.99R
TAMPA EXEC     DRIZZLE   77  73  88 CALM      29.99S
PLANT CITY     LGT RAIN  75  75 100 SW5       30.01R
MACDILL AFB    LGT RAIN  77  77 100 SW6       29.98R
PETER O KNIGHT DRIZZLE   79  77  94 SW6       29.99R
ST PETERSBURG  LGT RAIN  79  73  82 W13G20    29.96R
SARASOTA       CLOUDY    79  74  84 SW5       29.97R
VENICE         LGT RAIN  84  77  79 W10       29.99R

STATION/POSITION SKY/WX   TEMP    WIND        PRES    WAVE   SWELL
                          AIR SEA DIR/SP/G            HT/PER HT/PER
                          (F)     (DEG/KT/KT) (MB)    (FT/S) (FT/S)
CEDAR KEY                  83     280/  4/  5 1014.0R
28.5N   84.5W              83 85  240/ 10/ 12 1013.0S   2/ 4   2/ 9
27.3N   84.2W                 84                N/A     2/ 4
CLEARWATER BEACH           79 85  320/  7/ 10 1014.5S
MIDDLE TAMPA BAY           83     280/ 17/ 19 1014.5R
VENICE                     84 86  270/ 14/ 16 1014.7R

$$
FLZ066-069-070-075>078-162-262-165-265-310100-
SOUTHWEST FLORIDA AND KEYS

CITY           SKY/WX    TMP DP  RH WIND       PRES   REMARKS
PUNTA GORDA    CLOUDY    84  78  82 SW8       29.99R HX  95
FT MYERS       CLOUDY    84  77  79 SW8       29.98R
SOUTHWEST INTL CLOUDY    84  75  74 SW7       29.99R
NAPLES         MOCLDY    86  77  74 SW9       29.99R HX  97
MARCO ISLAND   PTCLDY    84  73  70 SW5       29.99S
MARATHON       MOCLDY    87  75  67 SW5       30.00R HX  96
KEY WEST NAS   CLOUDY    86  74  67 SW5       30.01R
KEY WEST INTL  CLOUDY    86  75  69 SW5       30.01R HX  95

STATION/POSITION SKY/WX   TEMP    WIND        PRES    WAVE   SWELL
                          AIR SEA DIR/SP/G            HT/PER HT/PER
                          (F)     (DEG/KT/KT) (MB)    (FT/S) (FT/S)
VENICE                     84 86  270/ 14/ 16 1014.7R
NAPLES                        86              1016.2R
26.0N   85.6W              83 84  250/ 14/ 17 1014.1F   3/ 4   2/ 9
DRY TORTUGAS               85     250/  5/  6 1015.7R
NW FL BAY                  87     280/  5/  7 1015.6
SAND KEY                   85     270/  4/  5 1016.1R
SOMBRERO KEY               85     270/  3/  4 1017.0R
LONG KEY                   88 90  280/  5/  5 1016.9R
MOLASSES REEF              86 88  260/  6/  7 1016.1R

$$
FLZ067-068-071>074-168-172>174-310100-
SOUTHEAST FLORIDA

CITY           SKY/WX    TMP DP  RH WIND       PRES   REMARKS
W PALM BEACH   CLOUDY    80  68  66 N9        30.00R
FT LAUDER-EXEC CLOUDY    88  67  49 W8        29.99R
FT LAUDERDALE  CLOUDY    87  72  60 W9        29.99R
POMPANO BEACH  CLOUDY    89  65  44 W9        29.99R
PEMBROKE PINES CLOUDY    87  71  58 W9        30.01R
OPA LOCKA      CLOUDY    87  72  60 W8        30.00R
MIAMI          CLOUDY    88  70  55 W9        30.00R
WEST KENDALL   CLOUDY    84  72  67 W5        30.00R
HOMESTEAD      CLOUDY    85  76  74 SW5       30.00R

STATION/POSITION SKY/WX   TEMP    WIND        PRES    WAVE   SWELL
                          AIR SEA DIR/SP/G            HT/PER HT/PER
                          (F)     (DEG/KT/KT) (MB)    (FT/S) (FT/S)
PORT EVERGLADES            88     270/  7/  9 1015.7R
VIRGINIA KEY               88 88  210/  8/ 10 1015.0R
LAKE WORTH                 89 84  250/  5/  6 1015.0R
SETTLEMENT POINT           85     190/ 11/ 12 1016.5R

$$



USA.gov is the U.S. government's official web portal to all federal, state and local government web resources and services.